User: anonymous   Login
Location: Hamburg
(53.5500°N, 10.0000°E)
Time: 18:22:37
(UTC+01:00)
Language:

Courier 1B - Orbit

View from above orbital plane
View from above orbital plane
View from above satellite
View from above satellite

Ground track
Ground track

The orbit data is extracted from the following two-line orbital elements,

1 00058U 60013A   14329.44270708  .00000109  00000-0  33376-4 0  8203
2 00058 028.3293 318.2490 0165049 174.6501 185.5845 13.46284129665247
Epoch (UTC): 25 November 2014 10:37:29
Eccentricity: 0.0165049
inclination: 28.3293°
perigee height: 963 km
apogee height: 1209 km
right ascension of ascending node: 318.2490°
argument of perigee: 174.6501°
revolutions per day: 13.46284129
mean anomaly at epoch: 185.5845°
orbit number at epoch: 66524

The dashed part of the orbit path shows where the satellite is in the earth's shadow,  

DLR